Regional Weather Roundup
Issued by NWS

Home | Current Version | Previous Version | Graphics & Text | Print | Product List | Glossary On
Versions: 1 2 3 4 5 6 7 8 9 10 11 12 13 14 15 16 17 18 19 20 21 22 23 24 25 26 27
000
ASUS45 KTFX 201910
RWRMT
MONTANA REGIONAL WEATHER ROUNDUP
NATIONAL WEATHER SERVICE GREAT FALLS MT
1200 PM MST MON NOV 20 2017

NOTE: "FAIR" INDICATES FEW OR NO CLOUDS BELOW 12000 FEET WITH NO
SIGNIFICANT WEATHER AND/OR OBSTRUCTIONS TO VISIBILITY.

MTZ001>007-043-202000-
WEST OF THE DIVIDE

CITY           SKY/WX    TMP DP  RH WIND       PRES   REMARKS
KALISPELL      LGT RAIN  41  39  93 SW5       29.71S
MISSOULA       LGT RAIN  36  36 100 CALM      29.78F
BUTTE          CLOUDY    42  27  55 W9G18     29.78F
MULLAN PASS    SNOW      29  27  92 S8        29.69F VSB 1/4 WCI  21
ANACONDA         N/A     43  30  61 S3        29.77S
DEER LODGE       N/A     37  34  87 CALM      29.79S
EUREKA           N/A     45  32  61 MISG      29.69S
HAMILTON         N/A     43  37  81 S12       29.79S
LIBBY            N/A     37  37 100 CALM      29.70S
RONAN            N/A     43  38  82 SE7       29.80R
$$

MTZ008-052>055-202000-
SOUTHWEST MONTANA

CITY           SKY/WX    TMP DP  RH WIND       PRES   REMARKS
BOZEMAN        CLOUDY    43  26  51 E6        29.77S
DILLON         CLOUDY    42  21  43 SW8       29.80F
W YELLOWSTONE  CLOUDY    30  18  59 SW10      29.96F WCI  21
ENNIS          CLOUDY    43  19  39 S25G36    29.86F
TWIN BRIDGES     N/A     46  19  34 SE3       29.81F
$$

MTZ009-010-012-014-046-048-049-054-202000-
EAST SLOPES AND CENTRAL MONTANA

CITY           SKY/WX    TMP DP  RH WIND       PRES   REMARKS
CUT BANK       PTSUNNY   31  23  72 N9        29.73R WCI  23
GREAT FALLS    CLOUDY    49  30  48 SW14      29.68R
MALMSTROM AFB  CLOUDY    49  31  50 W15       29.68S
HELENA         CLOUDY    48  32  53 CALM      29.72S
BOWMANS CRNR   PTSUNNY   43  31  63 S20       29.67R
CHOTEAU          N/A     34  27  75 NE12      29.73R WCI  25
FAIRFIELD      CLOUDY    35  27  73 N13       29.70R WCI  26
POWER          PTSUNNY   36  28  71 N15       29.70R WCI  27
RAYNESFORD     PTSUNNY   50  30  45 SW25G33   29.66F
ULM            CLOUDY    50  31  49 SW13      29.68F
$$

MTZ011-013-016-021-045-047-050-051-202000-
NORTH CENTRAL MONTANA

CITY           SKY/WX    TMP DP  RH WIND       PRES   REMARKS
HAVRE          CLOUDY    35  23  61 N9        29.75R WCI  28
LEWISTOWN      PTSUNNY   50  30  46 W20       29.66R
N BAR RANCH    FAIR      50  27  40 W22G35    29.64S
CHINOOK          N/A     36  21  55 NW10      29.76R WCI  28
DENTON         PTSUNNY   43  29  58 MISG      29.64R
GEYSER         PTSUNNY   51  30  44 W32G38    29.64S
GRASS RANGE    PTSUNNY   51  27  39 W23G29    29.60R
STANFORD       FAIR      52  30  42 W31G39    29.65R
WINIFRED       PTSUNNY   43  29  58 NW13      29.65R
$$

MTZ017>020-022>027-061-062-202000-
NORTHEAST MONTANA

CITY           SKY/WX    TMP DP  RH WIND       PRES   REMARKS
GLASGOW        CLOUDY    38  26  62 NW20G26   29.67R WCI  28
GLENDIVE       FAIR      51  26  37 NW26G35   29.58R
JORDAN           N/A     50  27  40 N23       29.63R
SIDNEY         FAIR      49  26  41 NW31G46   29.54R
WOLF POINT     PTSUNNY   44  28  53 NW18G33   29.64R
MALTA          MOSUNNY   37  27  65 NW9G20    29.72R WCI  31
PLENTYWOOD       N/A     34  28  80 NW28G35   29.55R WCI  20
POPLAR           N/A     41  27  56 NW21G30   29.60R
SCOBEY           N/A     33  20  59 NW24      29.62R WCI  20
$$

MTZ028>42-056>058-202000-
SOUTHCENTRAL AND SOUTHEAST MONTANA

CITY           SKY/WX    TMP DP  RH WIND       PRES   REMARKS
BAKER          FAIR      51  22  31 W24G32    29.58R
BILLINGS       PTSUNNY   55  25  31 W14       29.68S
LIVINGSTON     PTSUNNY   49  22  34 SW44G58   29.72S
MILES CITY     FAIR      48  26  42 W15       29.61R
BIG TIMBER     PTSUNNY   52  23  32 W23G29    29.74R
EKALAKA          N/A     50  18  28 W12       29.63R
FORSYTH          N/A     54  25  32 W13G20    29.63R
HARLOWTON      PTSUNNY   48  27  43 W15       29.69R
LAUREL           N/A     55  23  28 SW9       29.69S
ROUNDUP          N/A     55  21  26 SW25      29.60R
$$

REGIONAL REPORTS...DAKOTAS

CITY           SKY/WX    TMP DP  RH WIND       PRES   REMARKS
WILLISTON      FAIR      46  28  49 NW28G41   29.52R
MINOT          PTSUNNY   48  27  44 W23G36    29.36R
DICKINSON      FAIR      52  20  28 NW30G41   29.48R
BEACH          FAIR      50  19  29 NW28G37   29.58R
CROSBY         CLOUDY    34  28  80 NW30G39   29.50R WCI  20
TIOGA          MIX PCPN  37  28  70 NW32G47   29.49R WCI  25
BISMARCK       FAIR      56  24  29 W14       29.44S
GRAND FORKS    CLOUDY    39  30  70 SW10      29.28F
FARGO          FAIR      46  26  45 SW10      29.35F
BUFFALO SD       N/A     57  17  21 NW36G43   29.49S
RAPID CITY     FAIR      65  15  14 N18G28    29.59F
$$

REGIONAL REPORTS...WYOMING/IDAHO/WASHINGTON

CITY           SKY/WX    TMP DP  RH WIND       PRES   REMARKS
GILLETTE       FAIR      56  17  21 NW12      29.69S
SHERIDAN       FAIR      60  23  24 W13G21    29.67F
BUFFALO WY     FAIR      53  20  27 MISG      29.70F
CODY           FAIR      49  25  39 W13G29    29.79R
YELLOWSTONE LA   N/A     29  24  82 W8        29.97F WCI  21
IDAHO FALLS    CLOUDY    39  28  64 SW14      30.03S WCI  31
SALMON         CLOUDY    40  26  57 SE3       29.86S
BOISE          LGT RAIN  45  38  76 SE16      29.97F
SPOKANE        LGT RAIN  42  42 100 SE14      29.65F
$$

REGIONAL REPORTS...ALBERTA

CITY           SKY/WX    TMP DP  RH WIND       PRES   REMARKS
EDMONTON       SUNNY      3  -9  55 NW16      29.86R WCI -16
CALGARY        FLURRIES  21  16  79 NE10      29.75R WCI  10
LETHBRIDGE     CLOUDY    30  23  74 N6        29.76S WCI  24
MEDICINE HAT   CLOUDY    27  21  80 NW15      29.79R WCI  15
$$

REGIONAL REPORTS...SASKATCHEWAN

CITY           SKY/WX    TMP DP  RH WIND       PRES   REMARKS
SWIFT CURRENT  CLOUDY    18   9  68 NW18G30   29.67R WCI   2
REGINA         CLOUDY    21  18  86 NW26G33   29.54R WCI   4
SASKATOON      BLWGSNOW  10   5  79 NW30G36   29.62R VSB 3/4 WCI -12
$$




USA.gov is the U.S. government's official web portal to all federal, state and local government web resources and services.